Time,TemperatureF,DewpointF,PressureIn,WindDirection,WindDirectionDegrees,WindSpeedMPH,WindSpeedGustMPH,Humidity,HourlyPrecipIn,Conditions,Clouds,dailyrainin,SoftwareType,DateUTC
2013-06-12 00:01:00,68.0,64.3,29.72,SE,135,2.3,2.3,88,0.00,RA,,0.00,WeatherDisplay:10.37,2013-06-12 04:01:00,
2013-06-12 00:03:00,68.0,64.3,29.72,SW,225,1.1,1.1,88,0.00,RA,,0.00,WeatherDisplay:10.37,2013-06-12 04:03:00,
2013-06-12 00:04:00,68.0,64.3,29.72,SW,225,1.1,1.1,88,0.00,RA,,0.00,WeatherDisplay:10.37,2013-06-12 04:04:00,
2013-06-12 00:09:00,68.2,64.5,29.72,East,90,2.3,2.3,88,0.00,RA,,0.00,WeatherDisplay:10.37,2013-06-12 04:09:00,
2013-06-12 00:14:00,68.5,64.8,29.72,ESE,112,2.3,2.3,88,0.00,SCT,,0.00,WeatherDisplay:10.37,2013-06-12 04:14:00,
2013-06-12 00:19:00,68.4,64.7,29.72,ESE,112,1.1,1.6,88,0.00,SCT,,0.00,WeatherDisplay:10.37,2013-06-12 04:19:00,
2013-06-12 00:24:00,68.2,64.5,29.73,ESE,112,0.0,0.0,88,0.00,SCT,,0.00,WeatherDisplay:10.37,2013-06-12 04:24:00,
2013-06-12 00:29:00,68.0,64.6,29.73,East,90,0.0,0.0,89,0.00,SCT,,0.00,WeatherDisplay:10.37,2013-06-12 04:29:00,
2013-06-12 00:34:00,68.0,64.6,29.73,East,90,0.0,0.0,89,0.00,SCT,,0.00,WeatherDisplay:10.37,2013-06-12 04:34:00,
2013-06-12 00:39:00,68.0,64.6,29.73,ESE,112,0.0,0.0,89,0.00,SCT,,0.00,WeatherDisplay:10.37,2013-06-12 04:39:00,
2013-06-12 00:44:00,68.2,64.8,29.73,ESE,112,0.0,0.0,89,0.00,SCT,,0.00,WeatherDisplay:10.37,2013-06-12 04:44:00,
2013-06-12 00:49:00,67.8,64.4,29.73,SE,135,0.0,0.0,89,0.00,SCT,,0.00,WeatherDisplay:10.37,2013-06-12 04:49:00,
2013-06-12 00:54:00,67.6,64.2,29.73,SE,135,0.0,0.0,89,0.00,SCT,,0.00,WeatherDisplay:10.37,2013-06-12 04:54:00,
2013-06-12 00:59:00,67.6,64.9,29.73,SW,225,0.0,0.0,91,0.00,SCT,,0.00,WeatherDisplay:10.37,2013-06-12 04:59:00,
2013-06-12 01:04:00,67.1,64.4,29.73,SW,225,0.0,0.0,91,0.00,SCT,,0.00,WeatherDisplay:10.37,2013-06-12 05:04:00,
2013-06-12 01:09:00,66.7,64.6,29.72,SSW,202,0.0,0.0,93,0.00,SCT,,0.00,WeatherDisplay:10.37,2013-06-12 05:09:00,
2013-06-12 01:14:00,66.4,64.9,29.72,WSW,248,0.0,0.0,95,0.00,SCT,,0.00,WeatherDisplay:10.37,2013-06-12 05:14:00,
2013-06-12 01:19:00,66.2,64.4,29.72,SW,225,1.1,1.1,94,0.00,SCT,,0.00,WeatherDisplay:10.37,2013-06-12 05:19:00,
2013-06-12 01:24:00,66.0,64.2,29.73,SSE,158,1.1,0.0,94,0.00,SCT,,0.00,WeatherDisplay:10.37,2013-06-12 05:24:00,
2013-06-12 01:29:00,66.0,65.1,29.73,SW,225,3.5,3.5,97,0.00,SCT,,0.00,WeatherDisplay:10.37,2013-06-12 05:29:00,
2013-06-12 01:34:00,65.7,64.5,29.72,SSW,202,0.0,0.0,96,0.00,SCT,,0.00,WeatherDisplay:10.37,2013-06-12 05:34:00,
2013-06-12 01:39:00,65.8,64.3,29.72,South,180,1.1,0.0,95,0.00,SCT,,0.00,WeatherDisplay:10.37,2013-06-12 05:39:00,
2013-06-12 01:44:00,65.8,64.3,29.72,ESE,112,1.7,1.7,95,0.00,SCT,,0.00,WeatherDisplay:10.37,2013-06-12 05:44:00,
2013-06-12 01:49:00,65.7,64.5,29.72,ESE,112,0.0,0.0,96,0.00,SCT,,0.00,WeatherDisplay:10.37,2013-06-12 05:49:00,
2013-06-12 01:54:00,65.8,64.6,29.72,WNW,292,0.0,0.0,96,0.00,SCT,,0.00,WeatherDisplay:10.37,2013-06-12 05:54:00,
2013-06-12 01:59:00,65.8,64.3,29.73,SW,225,1.1,1.1,95,0.00,SCT,,0.00,WeatherDisplay:10.37,2013-06-12 05:59:00,
2013-06-12 02:04:00,65.8,64.3,29.73,WSW,248,0.0,0.0,95,0.00,SCT,,0.00,WeatherDisplay:10.37,2013-06-12 06:04:00,
2013-06-12 02:09:00,66.0,64.2,29.72,West,270,0.0,0.0,94,0.00,SCT,,0.00,WeatherDisplay:10.37,2013-06-12 06:09:00,
2013-06-12 02:14:00,66.0,64.2,29.72,SSE,158,0.0,0.0,94,0.00,SCT,,0.00,WeatherDisplay:10.37,2013-06-12 06:14:00,
2013-06-12 02:19:00,66.0,64.2,29.72,SSE,158,0.0,0.0,94,0.00,SCT,,0.00,WeatherDisplay:10.37,2013-06-12 06:19:00,
2013-06-12 02:24:00,66.0,64.5,29.72,West,270,0.0,0.0,95,0.00,SCT,,0.00,WeatherDisplay:10.37,2013-06-12 06:24:00,
2013-06-12 02:29:00,66.9,64.8,29.72,East,90,2.3,2.3,93,0.00,SCT,,0.00,WeatherDisplay:10.37,2013-06-12 06:29:00,
2013-06-12 02:34:00,66.6,64.5,29.71,ESE,112,1.1,0.0,93,0.00,OVC,,0.00,WeatherDisplay:10.37,2013-06-12 06:34:00,
2013-06-12 02:39:00,66.4,64.3,29.71,WSW,248,2.3,2.3,93,0.00,OVC,,0.00,WeatherDisplay:10.37,2013-06-12 06:39:00,
2013-06-12 02:44:00,66.2,64.1,29.71,SSE,158,2.3,2.3,93,0.00,OVC,,0.00,WeatherDisplay:10.37,2013-06-12 06:44:00,
2013-06-12 02:49:00,66.0,64.2,29.72,SW,225,2.7,2.7,94,0.00,OVC,,0.00,WeatherDisplay:10.37,2013-06-12 06:49:00,
2013-06-12 02:54:00,65.7,64.2,29.72,WSW,248,0.0,0.0,95,0.00,OVC,,0.00,WeatherDisplay:10.37,2013-06-12 06:54:00,
2013-06-12 02:59:00,65.5,64.3,29.71,ESE,112,0.0,0.0,96,0.00,OVC,,0.00,WeatherDisplay:10.37,2013-06-12 06:59:00,
2013-06-12 03:04:00,65.3,64.1,29.71,ESE,112,0.0,0.0,96,0.00,OVC,,0.00,WeatherDisplay:10.37,2013-06-12 07:04:00,
2013-06-12 03:09:00,65.1,63.9,29.72,WSW,248,0.0,0.0,96,0.00,OVC,,0.00,WeatherDisplay:10.37,2013-06-12 07:09:00,
2013-06-12 03:14:00,65.3,64.1,29.72,ESE,112,2.3,2.3,96,0.00,OVC,,0.00,WeatherDisplay:10.37,2013-06-12 07:14:00,
2013-06-12 03:19:00,65.1,63.9,29.72,WSW,248,0.0,0.0,96,0.00,OVC,,0.00,WeatherDisplay:10.37,2013-06-12 07:19:00,
2013-06-12 03:24:00,65.1,63.9,29.72,SSW,202,0.0,0.0,96,0.00,OVC,,0.00,WeatherDisplay:10.37,2013-06-12 07:24:00,
2013-06-12 03:29:00,64.8,63.9,29.72,SW,225,2.3,2.3,97,0.00,OVC,,0.00,WeatherDisplay:10.37,2013-06-12 07:29:00,
2013-06-12 03:34:00,64.2,63.3,29.71,SSW,202,2.3,2.3,97,0.00,BKN,,0.00,WeatherDisplay:10.37,2013-06-12 07:34:00,
2013-06-12 03:39:00,64.2,63.3,29.71,WSW,248,2.3,2.3,97,0.00,BKN,,0.00,WeatherDisplay:10.37,2013-06-12 07:39:00,
2013-06-12 03:44:00,64.0,63.4,29.71,West,270,0.0,0.0,98,0.00,BKN,,0.00,WeatherDisplay:10.37,2013-06-12 07:44:00,
2013-06-12 03:49:00,63.9,63.3,29.71,SW,225,0.0,0.0,98,0.00,BKN,,0.00,WeatherDisplay:10.37,2013-06-12 07:49:00,
2013-06-12 03:54:00,63.7,63.4,29.71,SW,225,0.0,0.0,99,0.00,BKN,,0.00,WeatherDisplay:10.37,2013-06-12 07:54:00,
2013-06-12 03:59:00,63.5,63.2,29.70,SSW,202,2.3,2.3,99,0.00,BKN,,0.00,WeatherDisplay:10.37,2013-06-12 07:59:00,
2013-06-12 04:04:00,63.5,63.2,29.70,SW,225,2.7,2.7,99,0.00,BKN,,0.00,WeatherDisplay:10.37,2013-06-12 08:04:00,
2013-06-12 04:09:00,64.0,63.7,29.70,SW,225,3.7,3.7,99,0.00,BKN,,0.00,WeatherDisplay:10.37,2013-06-12 08:09:00,
2013-06-12 04:14:00,63.9,63.6,29.70,SW,225,4.6,4.6,99,0.00,BKN,,0.00,WeatherDisplay:10.37,2013-06-12 08:14:00,
2013-06-12 04:19:00,64.4,64.1,29.70,SW,225,4.6,4.6,99,0.00,BKN,,0.00,WeatherDisplay:10.37,2013-06-12 08:19:00,
2013-06-12 04:24:00,64.4,63.8,29.70,SW,225,3.5,3.5,98,0.00,BKN,,0.00,WeatherDisplay:10.37,2013-06-12 08:24:00,
2013-06-12 04:29:00,64.6,64.0,29.70,SW,225,3.5,3.5,98,0.00,BKN,,0.00,WeatherDisplay:10.37,2013-06-12 08:29:00,
2013-06-12 04:34:00,64.0,63.7,29.70,SW,225,4.7,4.7,99,0.00,SCT,,0.00,WeatherDisplay:10.37,2013-06-12 08:34:00,
2013-06-12 04:39:00,64.8,64.2,29.70,SW,225,5.8,5.8,98,0.00,SCT,,0.00,WeatherDisplay:10.37,2013-06-12 08:39:00,
2013-06-12 04:44:00,64.4,63.5,29.71,SW,225,4.2,4.2,97,0.00,SCT,,0.00,WeatherDisplay:10.37,2013-06-12 08:44:00,
2013-06-12 04:49:00,64.6,64.0,29.71,WSW,248,3.5,3.5,98,0.00,SCT,,0.00,WeatherDisplay:10.37,2013-06-12 08:49:00,
2013-06-12 04:54:00,65.1,64.2,29.71,SW,225,4.6,4.6,97,0.00,SCT,,0.00,WeatherDisplay:10.37,2013-06-12 08:54:00,
2013-06-12 04:59:00,65.3,64.4,29.70,SW,225,4.6,4.6,97,0.00,SCT,,0.00,WeatherDisplay:10.37,2013-06-12 08:59:00,
2013-06-12 05:04:00,65.1,64.2,29.70,SW,225,2.7,2.7,97,0.00,SCT,,0.00,WeatherDisplay:10.37,2013-06-12 09:04:00,
2013-06-12 05:09:00,64.9,64.0,29.71,SW,225,3.5,3.5,97,0.00,SCT,,0.00,WeatherDisplay:10.37,2013-06-12 09:09:00,
2013-06-12 05:14:00,65.1,64.2,29.71,SSW,202,4.6,4.6,97,0.00,SCT,,0.00,WeatherDisplay:10.37,2013-06-12 09:14:00,
2013-06-12 05:19:00,64.8,63.9,29.71,SW,225,2.3,2.3,97,0.00,SCT,,0.00,WeatherDisplay:10.37,2013-06-12 09:19:00,
2013-06-12 05:24:00,64.6,64.0,29.71,SW,225,3.5,3.5,98,0.00,SCT,,0.00,WeatherDisplay:10.37,2013-06-12 09:24:00,
2013-06-12 05:29:00,64.4,63.8,29.71,WSW,248,2.3,2.5,98,0.00,SCT,,0.00,WeatherDisplay:10.37,2013-06-12 09:29:00,
2013-06-12 05:34:00,64.2,63.6,29.72,SSW,202,3.5,3.5,98,0.00,CLR,,0.00,WeatherDisplay:10.37,2013-06-12 09:34:00,
2013-06-12 05:39:00,64.2,63.6,29.72,SSW,202,3.5,3.5,98,0.00,CLR,,0.00,WeatherDisplay:10.37,2013-06-12 09:39:00,
2013-06-12 05:44:00,64.0,63.4,29.72,SW,225,3.5,3.5,98,0.00,CLR,,0.00,WeatherDisplay:10.37,2013-06-12 09:44:00,
2013-06-12 05:49:00,64.2,63.6,29.72,WSW,248,3.7,3.7,98,0.00,CLR,,0.00,WeatherDisplay:10.37,2013-06-12 09:49:00,
2013-06-12 05:54:00,64.2,63.6,29.72,SW,225,4.6,4.6,98,0.00,CLR,,0.00,WeatherDisplay:10.37,2013-06-12 09:54:00,
2013-06-12 05:59:00,64.6,64.0,29.72,SW,225,4.6,4.6,98,0.00,CLR,,0.00,WeatherDisplay:10.37,2013-06-12 09:59:00,
2013-06-12 06:04:00,64.6,64.0,29.72,SSW,202,4.6,4.6,98,0.00,CLR,,0.00,WeatherDisplay:10.37,2013-06-12 10:04:00,
2013-06-12 06:09:00,64.6,64.0,29.73,SW,225,5.8,5.8,98,0.00,CLR,,0.00,WeatherDisplay:10.37,2013-06-12 10:09:00,
2013-06-12 06:14:00,64.8,64.2,29.73,WSW,248,4.6,4.6,98,0.00,CLR,,0.00,WeatherDisplay:10.37,2013-06-12 10:14:00,
2013-06-12 06:19:00,64.9,64.0,29.73,WSW,248,5.8,5.8,97,0.00,CLR,,0.00,WeatherDisplay:10.37,2013-06-12 10:19:00,
2013-06-12 06:24:00,65.3,64.4,29.73,SSW,202,5.8,5.8,97,0.00,CLR,,0.00,WeatherDisplay:10.37,2013-06-12 10:24:00,
2013-06-12 06:29:00,65.5,64.6,29.73,SW,225,4.6,4.6,97,0.00,CLR,,0.00,WeatherDisplay:10.37,2013-06-12 10:29:00,
2013-06-12 06:34:00,65.8,64.6,29.73,SW,225,4.7,4.7,96,0.00,CLR,,0.00,WeatherDisplay:10.37,2013-06-12 10:34:00,
2013-06-12 06:39:00,66.0,64.8,29.73,SSW,202,3.5,3.5,96,0.00,CLR,,0.00,WeatherDisplay:10.37,2013-06-12 10:39:00,
2013-06-12 06:44:00,66.4,64.9,29.73,SSW,202,4.6,4.6,95,0.00,CLR,,0.00,WeatherDisplay:10.37,2013-06-12 10:44:00,
2013-06-12 06:49:00,66.7,65.2,29.74,WSW,248,4.6,4.6,95,0.00,CLR,,0.00,WeatherDisplay:10.37,2013-06-12 10:49:00,
2013-06-12 06:54:00,66.7,65.2,29.74,WSW,248,3.5,3.5,95,0.00,CLR,,0.00,WeatherDisplay:10.37,2013-06-12 10:54:00,
2013-06-12 06:59:00,67.5,65.7,29.74,SW,225,4.7,4.7,94,0.00,CLR,,0.00,WeatherDisplay:10.37,2013-06-12 10:59:00,
2013-06-12 07:04:00,67.5,65.4,29.74,WSW,248,5.8,5.8,93,0.00,CLR,,0.00,WeatherDisplay:10.37,2013-06-12 11:04:00,
2013-06-12 07:09:00,68.0,65.6,29.74,SW,225,4.6,4.6,92,0.00,CLR,,0.00,WeatherDisplay:10.37,2013-06-12 11:09:00,
2013-06-12 07:14:00,68.4,66.0,29.74,SW,225,5.8,5.8,92,0.00,CLR,,0.00,WeatherDisplay:10.37,2013-06-12 11:14:00,
2013-06-12 07:19:00,68.7,66.0,29.74,SW,225,5.8,5.8,91,0.00,CLR,,0.00,WeatherDisplay:10.37,2013-06-12 11:19:00,
2013-06-12 07:24:00,68.5,65.8,29.75,SW,225,5.8,6.0,91,0.00,CLR,,0.00,WeatherDisplay:10.37,2013-06-12 11:24:00,
2013-06-12 07:29:00,68.9,66.2,29.75,SW,225,5.8,5.8,91,0.00,CLR,,0.00,WeatherDisplay:10.37,2013-06-12 11:29:00,
2013-06-12 07:34:00,69.3,66.2,29.75,WSW,248,5.8,5.8,90,0.00,CLR,,0.00,WeatherDisplay:10.37,2013-06-12 11:34:00,
2013-06-12 07:39:00,70.0,66.6,29.75,SSW,202,5.8,5.8,89,0.00,CLR,,0.00,WeatherDisplay:10.37,2013-06-12 11:39:00,
2013-06-12 07:44:00,70.3,66.6,29.75,SW,225,5.8,5.8,88,0.00,CLR,,0.00,WeatherDisplay:10.37,2013-06-12 11:44:00,
2013-06-12 07:49:00,70.7,66.6,29.75,SW,225,6.3,6.3,87,0.00,CLR,,0.00,WeatherDisplay:10.37,2013-06-12 11:49:00,
2013-06-12 07:54:00,70.5,66.8,29.75,SW,225,5.8,5.8,88,0.00,CLR,,0.00,WeatherDisplay:10.37,2013-06-12 11:54:00,
2013-06-12 07:59:00,71.2,66.8,29.75,West,270,5.8,5.8,86,0.00,CLR,,0.00,WeatherDisplay:10.37,2013-06-12 11:59:00,
2013-06-12 08:04:00,71.6,66.8,29.75,SW,225,6.9,6.9,85,0.00,CLR,,0.00,WeatherDisplay:10.37,2013-06-12 12:04:00,
2013-06-12 08:09:00,71.6,66.8,29.75,WSW,248,5.8,5.8,85,0.00,CLR,,0.00,WeatherDisplay:10.37,2013-06-12 12:09:00,
2013-06-12 08:14:00,71.6,66.8,29.75,WSW,248,4.6,4.6,85,0.00,CLR,,0.00,WeatherDisplay:10.37,2013-06-12 12:14:00,
2013-06-12 08:19:00,71.6,66.8,29.75,WSW,248,5.8,5.8,85,0.00,CLR,,0.00,WeatherDisplay:10.37,2013-06-12 12:19:00,
2013-06-12 08:24:00,71.4,66.7,29.76,SW,225,5.8,5.8,85,0.00,CLR,,0.00,WeatherDisplay:10.37,2013-06-12 12:24:00,
2013-06-12 08:29:00,71.8,66.7,29.76,West,270,5.8,5.8,84,0.00,CLR,,0.00,WeatherDisplay:10.37,2013-06-12 12:29:00,
2013-06-12 08:34:00,72.0,66.9,29.76,SW,225,6.9,6.9,84,0.00,CLR,,0.00,WeatherDisplay:10.37,2013-06-12 12:34:00,
2013-06-12 08:39:00,72.9,67.4,29.76,WSW,248,6.3,6.3,83,0.00,CLR,,0.00,WeatherDisplay:10.37,2013-06-12 12:39:00,
2013-06-12 08:44:00,73.0,66.8,29.76,WSW,248,6.9,6.9,81,0.00,CLR,,0.00,WeatherDisplay:10.37,2013-06-12 12:44:00,
2013-06-12 08:49:00,73.4,67.2,29.76,WSW,248,5.8,5.8,81,0.00,CLR,,0.00,WeatherDisplay:10.37,2013-06-12 12:49:00,
2013-06-12 08:54:00,74.5,67.9,29.76,SW,225,4.6,4.6,80,0.00,CLR,,0.00,WeatherDisplay:10.37,2013-06-12 12:54:00,
2013-06-12 08:59:00,75.4,68.1,29.76,West,270,8.8,8.8,78,0.00,CLR,,0.00,WeatherDisplay:10.37,2013-06-12 12:59:00,
2013-06-12 09:04:00,74.5,67.2,29.76,SW,225,6.9,6.9,78,0.00,CLR,,0.00,WeatherDisplay:10.37,2013-06-12 13:04:00,
2013-06-12 09:10:00,75.3,67.5,29.76,WSW,252,8.0,11.0,77,0.00,CLR,,0.00,WeatherDisplay:10.37,2013-06-12 13:10:00,
2013-06-12 09:15:00,74.3,67.0,29.76,West,270,8.1,8.1,78,0.00,CLR,,0.00,WeatherDisplay:10.37,2013-06-12 13:15:00,
2013-06-12 09:20:00,74.7,67.4,29.76,West,270,10.4,10.4,78,0.00,CLR,,0.00,WeatherDisplay:10.37,2013-06-12 13:20:00,
2013-06-12 09:25:00,74.3,67.4,29.76,SSW,202,8.1,8.1,79,0.00,CLR,,0.00,WeatherDisplay:10.37,2013-06-12 13:25:00,
2013-06-12 09:30:00,74.3,67.0,29.76,SW,225,8.1,8.1,78,0.00,CLR,,0.00,WeatherDisplay:10.37,2013-06-12 13:30:00,
2013-06-12 09:35:00,74.3,67.0,29.76,SW,225,6.9,6.9,78,0.00,FEW,,0.00,WeatherDisplay:10.37,2013-06-12 13:35:00,
2013-06-12 09:40:00,76.1,67.6,29.76,SW,225,6.9,6.9,75,0.00,FEW,,0.00,WeatherDisplay:10.37,2013-06-12 13:40:00,
2013-06-12 09:45:00,75.2,67.5,29.75,West,270,7.3,7.3,77,0.00,FEW,,0.00,WeatherDisplay:10.37,2013-06-12 13:45:00,
2013-06-12 09:50:00,75.4,68.1,29.75,SSW,202,6.3,6.3,78,0.00,FEW,,0.00,WeatherDisplay:10.37,2013-06-12 13:50:00,
2013-06-12 09:55:00,75.4,67.7,29.75,SW,225,7.3,7.3,77,0.00,FEW,,0.00,WeatherDisplay:10.37,2013-06-12 13:55:00,
2013-06-12 10:00:00,75.4,67.7,29.74,WSW,248,5.8,5.8,77,0.00,FEW,,0.00,WeatherDisplay:10.37,2013-06-12 14:00:00,
2013-06-12 10:05:00,77.0,68.9,29.74,SW,225,3.5,3.5,76,0.00,FEW,,0.00,WeatherDisplay:10.37,2013-06-12 14:05:00,
2013-06-12 10:10:00,76.1,67.6,29.74,SW,225,6.9,6.9,75,0.00,FEW,,0.00,WeatherDisplay:10.37,2013-06-12 14:10:00,
2013-06-12 10:15:00,75.7,67.6,29.74,WSW,248,6.9,6.9,76,0.00,FEW,,0.00,WeatherDisplay:10.37,2013-06-12 14:15:00,
2013-06-12 10:20:00,76.1,68.0,29.74,SW,225,5.8,5.8,76,0.00,FEW,,0.00,WeatherDisplay:10.37,2013-06-12 14:20:00,
2013-06-12 10:25:00,79.0,69.6,29.74,SW,225,4.7,4.7,73,0.00,FEW,,0.00,WeatherDisplay:10.37,2013-06-12 14:25:00,
2013-06-12 10:30:00,78.4,68.6,29.74,SW,225,6.9,6.9,72,0.00,FEW,,0.00,WeatherDisplay:10.37,2013-06-12 14:30:00,
2013-06-12 10:35:00,77.2,68.3,29.74,WNW,292,5.8,5.8,74,0.00,CLR,,0.00,WeatherDisplay:10.37,2013-06-12 14:35:00,
2013-06-12 10:40:00,77.9,68.1,29.74,North,360,4.6,4.6,72,0.00,CLR,,0.00,WeatherDisplay:10.37,2013-06-12 14:40:00,
2013-06-12 10:45:00,77.5,68.6,29.74,WSW,248,10.4,10.4,74,0.00,CLR,,0.00,WeatherDisplay:10.37,2013-06-12 14:45:00,
2013-06-12 10:50:00,77.9,68.1,29.74,West,270,8.1,8.1,72,0.00,CLR,,0.00,WeatherDisplay:10.37,2013-06-12 14:50:00,
2013-06-12 10:55:00,78.4,68.2,29.74,West,270,4.6,4.6,71,0.00,CLR,,0.00,WeatherDisplay:10.37,2013-06-12 14:55:00,
2013-06-12 11:00:00,77.9,68.5,29.74,WSW,248,4.6,4.6,73,0.00,CLR,,0.00,WeatherDisplay:10.37,2013-06-12 15:00:00,
2013-06-12 11:05:00,78.1,68.3,29.74,SW,225,6.9,6.9,72,0.00,CLR,,0.00,WeatherDisplay:10.37,2013-06-12 15:05:00,
2013-06-12 11:10:00,77.5,67.8,29.74,West,270,6.9,6.9,72,0.00,CLR,,0.00,WeatherDisplay:10.37,2013-06-12 15:10:00,
2013-06-12 11:15:00,80.2,68.7,29.74,SW,225,9.4,9.4,68,0.00,CLR,,0.00,WeatherDisplay:10.37,2013-06-12 15:15:00,
2013-06-12 11:20:00,79.5,68.4,29.74,WSW,248,5.8,5.8,69,0.00,CLR,,0.00,WeatherDisplay:10.37,2013-06-12 15:20:00,
2013-06-12 11:25:00,79.0,68.0,29.75,WSW,248,6.9,6.9,69,0.00,CLR,,0.00,WeatherDisplay:10.37,2013-06-12 15:25:00,
2013-06-12 11:30:00,80.6,68.6,29.75,SW,225,6.9,6.9,67,0.00,CLR,,0.00,WeatherDisplay:10.37,2013-06-12 15:30:00,
2013-06-12 11:35:00,80.1,67.7,29.74,West,270,11.5,11.5,66,0.00,CLR,,0.00,WeatherDisplay:10.37,2013-06-12 15:35:00,
2013-06-12 11:40:00,80.1,67.7,29.74,WSW,248,11.9,11.9,66,0.00,CLR,,0.00,WeatherDisplay:10.37,2013-06-12 15:40:00,
2013-06-12 11:45:00,81.0,68.1,29.75,WSW,248,11.5,11.5,65,0.00,CLR,,0.00,WeatherDisplay:10.37,2013-06-12 15:45:00,
2013-06-12 11:50:00,80.1,68.2,29.75,West,270,9.2,9.2,67,0.00,CLR,,0.00,WeatherDisplay:10.37,2013-06-12 15:50:00,
2013-06-12 11:55:00,79.5,68.4,29.75,West,270,6.9,6.9,69,0.00,CLR,,0.00,WeatherDisplay:10.37,2013-06-12 15:55:00,
2013-06-12 12:00:00,81.1,68.7,29.76,West,270,8.3,8.3,66,0.00,CLR,,0.00,WeatherDisplay:10.37,2013-06-12 16:00:00,
2013-06-12 12:05:00,80.8,68.4,29.76,SW,225,9.2,9.2,66,0.00,CLR,,0.00,WeatherDisplay:10.37,2013-06-12 16:05:00,
2013-06-12 12:10:00,80.8,68.4,29.76,WSW,248,10.4,10.4,66,0.00,CLR,,0.00,WeatherDisplay:10.37,2013-06-12 16:10:00,
2013-06-12 12:15:00,81.3,67.0,29.76,SW,225,10.4,10.4,62,0.00,CLR,,0.00,WeatherDisplay:10.37,2013-06-12 16:15:00,
2013-06-12 12:20:00,82.9,68.5,29.76,WSW,248,10.4,10.4,62,0.00,CLR,,0.00,WeatherDisplay:10.37,2013-06-12 16:20:00,
2013-06-12 12:25:00,82.2,68.3,29.75,SW,225,8.1,8.1,63,0.00,CLR,,0.00,WeatherDisplay:10.37,2013-06-12 16:25:00,
2013-06-12 12:30:00,82.4,68.5,29.75,West,270,8.3,8.3,63,0.00,CLR,,0.00,WeatherDisplay:10.37,2013-06-12 16:30:00,
2013-06-12 12:35:00,80.8,66.1,29.75,WSW,248,12.7,12.7,61,0.00,FEW,,0.00,WeatherDisplay:10.37,2013-06-12 16:35:00,
2013-06-12 12:40:00,81.3,66.6,29.75,WSW,248,12.7,12.7,61,0.00,FEW,,0.00,WeatherDisplay:10.37,2013-06-12 16:40:00,
2013-06-12 12:45:00,81.1,66.4,29.75,SW,225,12.7,12.7,61,0.00,FEW,,0.00,WeatherDisplay:10.37,2013-06-12 16:45:00,
2013-06-12 12:50:00,81.1,66.8,29.75,NW,315,9.4,9.4,62,0.00,FEW,,0.00,WeatherDisplay:10.37,2013-06-12 16:50:00,
2013-06-12 12:55:00,81.3,66.6,29.75,ESE,112,10.4,10.4,61,0.00,FEW,,0.00,WeatherDisplay:10.37,2013-06-12 16:55:00,
2013-06-12 13:00:00,81.1,66.4,29.75,NNW,338,10.9,10.9,61,0.00,FEW,,0.00,WeatherDisplay:10.37,2013-06-12 17:00:00,
2013-06-12 13:05:00,81.7,66.9,29.75,WNW,292,9.4,9.4,61,0.00,SCT,,0.00,WeatherDisplay:10.37,2013-06-12 17:05:00,
2013-06-12 13:10:00,82.8,67.0,29.75,SSW,202,11.9,11.9,59,0.00,SCT,,0.00,WeatherDisplay:10.37,2013-06-12 17:10:00,
2013-06-12 13:15:00,83.3,67.0,29.75,WSW,248,12.7,12.7,58,0.00,SCT,,0.00,WeatherDisplay:10.37,2013-06-12 17:15:00,
2013-06-12 13:20:00,82.0,65.8,29.75,West,270,12.7,12.7,58,0.00,SCT,,0.00,WeatherDisplay:10.37,2013-06-12 17:20:00,
2013-06-12 13:25:00,82.4,66.6,29.75,WSW,248,8.1,8.1,59,0.00,SCT,,0.00,WeatherDisplay:10.37,2013-06-12 17:25:00,
2013-06-12 13:30:00,82.0,65.8,29.75,WSW,248,10.4,10.4,58,0.00,SCT,,0.00,WeatherDisplay:10.37,2013-06-12 17:30:00,
2013-06-12 13:35:00,81.9,66.6,29.74,West,270,10.4,10.4,60,0.00,SCT,,0.00,WeatherDisplay:10.37,2013-06-12 17:35:00,
2013-06-12 13:40:00,83.5,66.7,29.74,West,270,8.1,8.1,57,0.00,SCT,,0.00,WeatherDisplay:10.37,2013-06-12 17:40:00,
2013-06-12 13:45:00,83.1,66.8,29.74,SW,225,12.4,12.4,58,0.00,SCT,,0.00,WeatherDisplay:10.37,2013-06-12 17:45:00,
2013-06-12 13:50:00,82.4,66.1,29.74,WSW,248,13.0,13.0,58,0.00,SCT,,0.00,WeatherDisplay:10.37,2013-06-12 17:50:00,
2013-06-12 13:55:00,82.2,66.4,29.74,SW,225,9.2,9.2,59,0.00,SCT,,0.00,WeatherDisplay:10.37,2013-06-12 17:55:00,
2013-06-12 14:00:00,83.1,67.3,29.74,West,270,11.5,11.5,59,0.00,SCT,,0.00,WeatherDisplay:10.37,2013-06-12 18:00:00,
2013-06-12 14:05:00,82.8,66.0,29.74,West,270,16.1,16.1,57,0.00,SCT,,0.00,WeatherDisplay:10.37,2013-06-12 18:05:00,
2013-06-12 14:10:00,82.4,65.1,29.75,West,270,16.1,16.1,56,0.00,SCT,,0.00,WeatherDisplay:10.37,2013-06-12 18:10:00,
2013-06-12 14:15:00,82.6,66.3,29.75,WSW,248,14.0,14.0,58,0.00,SCT,,0.00,WeatherDisplay:10.37,2013-06-12 18:15:00,
2013-06-12 14:20:00,81.7,65.5,29.75,SW,225,16.1,16.1,58,0.00,SCT,,0.00,WeatherDisplay:10.37,2013-06-12 18:20:00,
2013-06-12 14:25:00,81.5,65.8,29.73,SW,225,13.0,13.0,59,0.00,SCT,,0.00,WeatherDisplay:10.37,2013-06-12 18:25:00,
2013-06-12 14:30:00,81.3,65.6,29.73,West,270,8.1,8.1,59,0.00,SCT,,0.00,WeatherDisplay:10.37,2013-06-12 18:30:00,
2013-06-12 14:35:00,81.1,65.9,29.74,WSW,248,8.8,8.8,60,0.00,SCT,,0.00,WeatherDisplay:10.37,2013-06-12 18:35:00,
2013-06-12 14:40:00,81.1,65.4,29.74,West,270,8.1,8.1,59,0.00,SCT,,0.00,WeatherDisplay:10.37,2013-06-12 18:40:00,
2013-06-12 14:45:00,81.1,64.9,29.73,WSW,248,9.2,9.2,58,0.00,SCT,,0.00,WeatherDisplay:10.37,2013-06-12 18:45:00,
2013-06-12 14:50:00,81.1,65.4,29.73,West,270,9.2,9.2,59,0.00,SCT,,0.00,WeatherDisplay:10.37,2013-06-12 18:50:00,
2013-06-12 14:55:00,81.0,66.3,29.73,West,270,9.2,9.2,61,0.00,SCT,,0.00,WeatherDisplay:10.37,2013-06-12 18:55:00,
2013-06-12 15:00:00,80.4,66.6,29.73,West,270,6.9,6.9,63,0.00,SCT,,0.00,WeatherDisplay:10.37,2013-06-12 19:00:00,
2013-06-12 15:05:00,80.6,66.4,29.73,SW,225,3.7,3.7,62,0.00,-RA,,0.00,WeatherDisplay:10.37,2013-06-12 19:05:00,
2013-06-12 15:10:00,81.0,66.8,29.71,WSW,248,6.3,6.3,62,0.00,-RA,,0.00,WeatherDisplay:10.37,2013-06-12 19:10:00,
2013-06-12 15:15:00,80.4,66.2,29.71,WSW,248,5.8,5.8,62,0.00,-RA,,0.00,WeatherDisplay:10.37,2013-06-12 19:15:00,
2013-06-12 15:20:00,80.4,67.1,29.71,WSW,248,4.6,4.6,64,0.00,-RA,,0.00,WeatherDisplay:10.37,2013-06-12 19:20:00,
2013-06-12 15:25:00,81.3,67.0,29.72,SW,225,5.8,5.8,62,0.00,-RA,,0.00,WeatherDisplay:10.37,2013-06-12 19:25:00,
2013-06-12 15:30:00,81.7,67.4,29.72,West,270,3.5,3.5,62,0.00,-RA,,0.00,WeatherDisplay:10.37,2013-06-12 19:30:00,
2013-06-12 15:35:00,82.0,67.7,29.70,SW,225,2.7,2.7,62,0.00,-RA,,0.00,WeatherDisplay:10.37,2013-06-12 19:35:00,
2013-06-12 15:40:00,81.9,68.1,29.70,SW,225,3.5,3.5,63,0.00,-RA,,0.00,WeatherDisplay:10.37,2013-06-12 19:40:00,
2013-06-12 15:45:00,84.2,69.3,29.69,SW,225,3.5,3.5,61,0.00,-RA,,0.00,WeatherDisplay:10.37,2013-06-12 19:45:00,
2013-06-12 15:50:00,83.7,69.8,29.69,SW,225,3.2,3.2,63,0.00,-RA,,0.00,WeatherDisplay:10.37,2013-06-12 19:50:00,
2013-06-12 15:55:00,83.8,70.3,29.69,WSW,248,5.8,5.8,64,0.00,-RA,,0.00,WeatherDisplay:10.37,2013-06-12 19:55:00,
2013-06-12 16:00:00,83.8,70.3,29.70,SW,225,5.8,5.8,64,0.00,-RA,,0.00,WeatherDisplay:10.37,2013-06-12 20:00:00,
2013-06-12 16:05:00,83.1,69.7,29.70,SSW,202,8.1,8.1,64,0.00,SCT,,0.00,WeatherDisplay:10.37,2013-06-12 20:05:00,
2013-06-12 16:10:00,81.9,69.4,29.70,SW,225,8.3,8.3,66,0.00,SCT,,0.00,WeatherDisplay:10.37,2013-06-12 20:10:00,
2013-06-12 16:15:00,80.8,68.8,29.70,WSW,248,10.4,10.4,67,0.00,SCT,,0.00,WeatherDisplay:10.37,2013-06-12 20:15:00,
2013-06-12 16:20:00,81.5,68.6,29.70,SW,225,5.8,6.3,65,0.00,SCT,,0.00,WeatherDisplay:10.37,2013-06-12 20:20:00,
2013-06-12 16:25:00,81.9,69.0,29.70,SSW,202,5.8,5.8,65,0.00,SCT,,0.00,WeatherDisplay:10.37,2013-06-12 20:25:00,
2013-06-12 16:30:00,82.6,69.2,29.70,SW,225,5.8,5.8,64,0.00,SCT,,0.00,WeatherDisplay:10.37,2013-06-12 20:30:00,
2013-06-12 16:35:00,82.2,69.7,29.68,SW,225,3.7,3.7,66,0.00,SCT,,0.00,WeatherDisplay:10.37,2013-06-12 20:35:00,
2013-06-12 16:40:00,83.7,69.8,29.68,SW,225,8.3,8.3,63,0.00,SCT,,0.00,WeatherDisplay:10.37,2013-06-12 20:40:00,
2013-06-12 16:45:00,82.2,69.7,29.69,West,270,9.2,9.2,66,0.00,SCT,,0.00,WeatherDisplay:10.37,2013-06-12 20:45:00,
2013-06-12 16:50:00,81.7,69.2,29.69,SW,225,9.2,9.2,66,0.00,SCT,,0.00,WeatherDisplay:10.37,2013-06-12 20:50:00,
2013-06-12 16:55:00,81.0,69.0,29.69,West,270,9.2,9.2,67,0.00,SCT,,0.00,WeatherDisplay:10.37,2013-06-12 20:55:00,
2013-06-12 17:00:00,81.0,69.4,29.68,West,270,9.2,9.2,68,0.00,SCT,,0.00,WeatherDisplay:10.37,2013-06-12 21:00:00,
2013-06-12 17:05:00,81.1,69.1,29.68,WSW,248,9.2,9.2,67,0.00,CLR,,0.00,WeatherDisplay:10.37,2013-06-12 21:05:00,
2013-06-12 17:10:00,80.6,69.1,29.70,WSW,248,8.3,8.3,68,0.00,CLR,,0.00,WeatherDisplay:10.37,2013-06-12 21:10:00,
2013-06-12 17:15:00,80.1,69.0,29.70,West,270,8.8,8.8,69,0.00,CLR,,0.00,WeatherDisplay:10.37,2013-06-12 21:15:00,
2013-06-12 17:20:00,80.2,68.7,29.70,SW,225,5.8,5.8,68,0.00,CLR,,0.00,WeatherDisplay:10.37,2013-06-12 21:20:00,
2013-06-12 17:25:00,80.2,68.7,29.70,West,270,9.2,9.2,68,0.00,CLR,,0.00,WeatherDisplay:10.37,2013-06-12 21:25:00,
2013-06-12 17:30:00,80.6,69.5,29.70,WSW,248,6.3,6.3,69,0.00,CLR,,0.00,WeatherDisplay:10.37,2013-06-12 21:30:00,
2013-06-12 17:35:00,80.6,69.1,29.71,SW,225,5.8,5.8,68,0.00,CLR,,0.00,WeatherDisplay:10.37,2013-06-12 21:35:00,
2013-06-12 17:40:00,80.8,69.2,29.71,West,270,5.8,5.8,68,0.00,CLR,,0.00,WeatherDisplay:10.37,2013-06-12 21:40:00,
2013-06-12 17:45:00,81.5,69.5,29.70,WSW,248,3.5,3.5,67,0.00,CLR,,0.00,WeatherDisplay:10.37,2013-06-12 21:45:00,
2013-06-12 17:51:00,83.1,69.7,29.70,SW,225,2.7,2.7,64,0.00,CLR,,0.00,WeatherDisplay:10.37,2013-06-12 21:51:00,
2013-06-12 17:56:00,82.9,69.9,29.70,SSW,202,2.3,2.3,65,0.00,CLR,,0.00,WeatherDisplay:10.37,2013-06-12 21:56:00,
2013-06-12 18:01:00,83.8,70.3,29.68,SW,225,3.5,3.5,64,0.00,CLR,,0.00,WeatherDisplay:10.37,2013-06-12 22:01:00,
2013-06-12 18:06:00,82.6,71.0,29.68,West,270,3.5,3.5,68,0.00,CLR,,0.00,WeatherDisplay:10.37,2013-06-12 22:06:00,
2013-06-12 18:11:00,82.4,69.9,29.70,WSW,248,5.8,5.8,66,0.00,CLR,,0.00,WeatherDisplay:10.37,2013-06-12 22:11:00,
2013-06-12 18:16:00,82.6,70.1,29.70,WSW,248,5.8,5.8,66,0.00,CLR,,0.00,WeatherDisplay:10.37,2013-06-12 22:16:00,
2013-06-12 18:21:00,82.9,70.4,29.69,WSW,248,4.6,4.6,66,0.00,CLR,,0.00,WeatherDisplay:10.37,2013-06-12 22:21:00,
2013-06-12 18:26:00,84.2,70.7,29.69,SSE,158,2.7,2.7,64,0.00,CLR,,0.00,WeatherDisplay:10.37,2013-06-12 22:26:00,
2013-06-12 18:31:00,83.3,70.8,29.69,SW,225,2.3,2.3,66,0.00,CLR,,0.00,WeatherDisplay:10.37,2013-06-12 22:31:00,
2013-06-12 18:36:00,82.4,71.2,29.68,SSW,202,2.3,2.3,69,0.00,CLR,,0.00,WeatherDisplay:10.37,2013-06-12 22:36:00,
2013-06-12 18:41:00,81.3,71.4,29.68,SW,225,4.6,4.6,72,0.00,CLR,,0.00,WeatherDisplay:10.37,2013-06-12 22:41:00,
2013-06-12 18:46:00,80.2,71.2,29.70,SW,225,4.6,4.6,74,0.00,CLR,,0.00,WeatherDisplay:10.37,2013-06-12 22:46:00,
2013-06-12 18:51:00,80.1,70.3,29.70,WSW,248,5.8,5.8,72,0.00,CLR,,0.00,WeatherDisplay:10.37,2013-06-12 22:51:00,
2013-06-12 18:56:00,80.2,70.8,29.70,West,270,3.5,3.5,73,0.00,CLR,,0.00,WeatherDisplay:10.37,2013-06-12 22:56:00,
2013-06-12 19:01:00,80.6,70.3,29.69,SW,225,2.3,2.3,71,0.00,CLR,,0.00,WeatherDisplay:10.37,2013-06-12 23:01:00,
2013-06-12 19:06:00,81.1,70.8,29.69,SW,225,1.1,1.1,71,0.00,CLR,,0.00,WeatherDisplay:10.37,2013-06-12 23:06:00,
2013-06-12 19:11:00,82.2,71.4,29.68,SW,225,0.0,0.0,70,0.00,CLR,,0.00,WeatherDisplay:10.37,2013-06-12 23:11:00,
2013-06-12 19:16:00,82.6,71.8,29.68,SW,225,1.7,1.7,70,0.00,CLR,,0.00,WeatherDisplay:10.37,2013-06-12 23:16:00,
2013-06-12 19:21:00,82.2,71.9,29.69,WSW,248,2.3,2.3,71,0.00,CLR,,0.00,WeatherDisplay:10.37,2013-06-12 23:21:00,
2013-06-12 19:26:00,82.2,71.4,29.69,SE,135,0.0,0.0,70,0.00,CLR,,0.00,WeatherDisplay:10.37,2013-06-12 23:26:00,
2013-06-12 19:31:00,82.2,71.4,29.69,SSW,202,0.0,0.0,70,0.00,CLR,,0.00,WeatherDisplay:10.37,2013-06-12 23:31:00,
2013-06-12 19:36:00,82.0,71.2,29.68,ESE,112,3.2,3.2,70,0.00,CLR,,0.00,WeatherDisplay:10.37,2013-06-12 23:36:00,
2013-06-12 19:41:00,80.8,71.3,29.68,ESE,112,2.7,2.7,73,0.00,CLR,,0.00,WeatherDisplay:10.37,2013-06-12 23:41:00,
2013-06-12 19:46:00,80.2,71.2,29.67,East,90,1.1,1.1,74,0.00,CLR,,0.00,WeatherDisplay:10.37,2013-06-12 23:46:00,
2013-06-12 19:51:00,79.7,70.7,29.67,ESE,112,2.3,2.3,74,0.00,CLR,,0.00,WeatherDisplay:10.37,2013-06-12 23:51:00,
2013-06-12 19:56:00,79.7,71.1,29.67,ESE,112,1.7,1.7,75,0.00,CLR,,0.00,WeatherDisplay:10.37,2013-06-12 23:56:00,
2013-06-12 20:01:00,79.5,71.3,29.67,ESE,112,1.1,1.1,76,0.00,CLR,,0.00,WeatherDisplay:10.37,2013-06-13 00:01:00,
2013-06-12 20:06:00,79.2,72.5,29.67,SW,225,1.1,1.1,80,0.00,CLR,,0.00,WeatherDisplay:10.37,2013-06-13 00:06:00,
2013-06-12 20:11:00,78.8,73.2,29.68,SW,225,0.0,0.0,83,0.00,CLR,,0.00,WeatherDisplay:10.37,2013-06-13 00:11:00,
2013-06-12 20:16:00,78.6,72.3,29.68,WSW,248,0.0,0.0,81,0.00,CLR,,0.00,WeatherDisplay:10.37,2013-06-13 00:16:00,
2013-06-12 20:21:00,78.3,72.3,29.69,WSW,248,0.0,0.0,82,0.00,CLR,,0.00,WeatherDisplay:10.37,2013-06-13 00:21:00,
2013-06-12 20:26:00,77.9,72.0,29.69,WSW,248,0.0,0.0,82,0.00,CLR,,0.00,WeatherDisplay:10.37,2013-06-13 00:26:00,
2013-06-12 20:31:00,77.7,71.4,29.69,SW,225,0.0,0.0,81,0.00,CLR,,0.00,WeatherDisplay:10.37,2013-06-13 00:31:00,
2013-06-12 20:36:00,77.5,71.2,29.69,SW,225,0.0,0.0,81,0.00,CLR,,0.00,WeatherDisplay:10.37,2013-06-13 00:36:00,
2013-06-12 20:41:00,77.5,72.6,29.69,SW,225,0.0,0.0,85,0.00,CLR,,0.00,WeatherDisplay:10.37,2013-06-13 00:41:00,
2013-06-12 20:46:00,77.2,72.7,29.69,WSW,248,0.0,0.0,86,0.00,CLR,,0.00,WeatherDisplay:10.37,2013-06-13 00:46:00,
2013-06-12 20:51:00,76.8,72.3,29.69,SW,225,0.0,0.0,86,0.00,CLR,,0.00,WeatherDisplay:10.37,2013-06-13 00:51:00,
2013-06-12 20:56:00,76.6,71.0,29.69,SSW,202,0.0,0.0,83,0.00,CLR,,0.00,WeatherDisplay:10.37,2013-06-13 00:56:00,
2013-06-12 21:01:00,76.8,70.9,29.67,East,90,0.0,0.0,82,0.00,FEW,,0.00,WeatherDisplay:10.37,2013-06-13 01:01:00,
2013-06-12 21:06:00,76.6,71.4,29.67,SW,225,0.0,0.0,84,0.00,FEW,,0.00,WeatherDisplay:10.37,2013-06-13 01:06:00,
2013-06-12 21:11:00,76.3,71.5,29.66,SW,225,2.2,2.2,85,0.00,FEW,,0.00,WeatherDisplay:10.37,2013-06-13 01:11:00,
2013-06-12 21:16:00,76.1,71.6,29.66,WNW,292,0.0,0.0,86,0.00,FEW,,0.00,WeatherDisplay:10.37,2013-06-13 01:16:00,
2013-06-12 21:21:00,75.7,71.6,29.66,SSW,202,1.7,1.7,87,0.00,FEW,,0.00,WeatherDisplay:10.37,2013-06-13 01:21:00,
2013-06-12 21:26:00,75.6,71.1,29.67,SSE,158,0.0,0.0,86,0.00,FEW,,0.00,WeatherDisplay:10.37,2013-06-13 01:26:00,
2013-06-12 21:31:00,75.6,71.1,29.67,SW,225,0.0,0.0,86,0.00,FEW,,0.00,WeatherDisplay:10.37,2013-06-13 01:31:00,
2013-06-12 21:36:00,75.2,71.4,29.67,West,270,0.0,0.0,88,0.00,FEW,,0.00,WeatherDisplay:10.37,2013-06-13 01:36:00,
2013-06-12 21:41:00,75.0,71.2,29.67,WSW,248,2.3,2.3,88,0.00,FEW,,0.00,WeatherDisplay:10.37,2013-06-13 01:41:00,
2013-06-12 21:46:00,75.0,71.2,29.67,West,270,0.0,0.0,88,0.00,FEW,,0.00,WeatherDisplay:10.37,2013-06-13 01:46:00,
2013-06-12 21:51:00,75.0,71.2,29.67,WSW,248,0.0,0.0,88,0.00,FEW,,0.00,WeatherDisplay:10.37,2013-06-13 01:51:00,
2013-06-12 21:56:00,74.8,71.0,29.67,SSW,202,0.0,0.0,88,0.00,FEW,,0.00,WeatherDisplay:10.37,2013-06-13 01:56:00,
2013-06-12 22:01:00,74.8,71.0,29.67,ESE,112,0.0,0.0,88,0.00,CLR,,0.00,WeatherDisplay:10.37,2013-06-13 02:01:00,
2013-06-12 22:06:00,74.8,71.3,29.67,SW,225,2.3,2.3,89,0.00,CLR,,0.00,WeatherDisplay:10.37,2013-06-13 02:06:00,
2013-06-12 22:11:00,75.0,71.5,29.66,East,90,2.3,2.3,89,0.00,CLR,,0.00,WeatherDisplay:10.37,2013-06-13 02:11:00,
2013-06-12 22:16:00,75.0,71.5,29.66,ENE,68,2.3,2.4,89,0.00,CLR,,0.00,WeatherDisplay:10.37,2013-06-13 02:16:00,
2013-06-12 22:21:00,74.8,71.3,29.64,East,90,3.5,3.5,89,0.00,CLR,,0.00,WeatherDisplay:10.37,2013-06-13 02:21:00,
2013-06-12 22:26:00,74.8,71.7,29.64,SE,135,4.6,4.6,90,0.00,CLR,,0.00,WeatherDisplay:10.37,2013-06-13 02:26:00,
2013-06-12 22:31:00,74.8,71.7,29.64,South,180,1.1,1.3,90,0.00,CLR,,0.00,WeatherDisplay:10.37,2013-06-13 02:31:00,
2013-06-12 22:36:00,74.8,71.7,29.64,ESE,112,2.3,2.3,90,0.00,CLR,,0.00,WeatherDisplay:10.37,2013-06-13 02:36:00,
2013-06-12 22:41:00,74.7,71.6,29.64,West,270,2.3,2.3,90,0.00,CLR,,0.00,WeatherDisplay:10.37,2013-06-13 02:41:00,
2013-06-12 22:46:00,74.3,71.5,29.65,West,270,3.5,3.5,91,0.00,CLR,,0.00,WeatherDisplay:10.37,2013-06-13 02:46:00,
2013-06-12 22:51:00,74.1,71.6,29.65,West,270,3.5,3.5,92,0.00,CLR,,0.00,WeatherDisplay:10.37,2013-06-13 02:51:00,
2013-06-12 22:56:00,73.9,71.4,29.65,West,270,3.5,3.5,92,0.00,CLR,,0.00,WeatherDisplay:10.37,2013-06-13 02:56:00,
2013-06-12 23:01:00,73.9,71.4,29.65,West,270,2.7,2.7,92,0.00,CLR,,0.00,WeatherDisplay:10.37,2013-06-13 03:01:00,
2013-06-12 23:06:00,73.9,71.4,29.65,SW,225,2.3,2.3,92,0.00,CLR,,0.00,WeatherDisplay:10.37,2013-06-13 03:06:00,
2013-06-12 23:11:00,73.9,71.4,29.64,South,180,1.1,1.1,92,0.00,CLR,,0.00,WeatherDisplay:10.37,2013-06-13 03:11:00,
2013-06-12 23:16:00,73.9,71.4,29.64,SW,225,2.3,2.3,92,0.00,CLR,,0.00,WeatherDisplay:10.37,2013-06-13 03:16:00,
2013-06-12 23:21:00,73.9,71.4,29.62,West,270,1.7,1.7,92,0.00,CLR,,0.00,WeatherDisplay:10.37,2013-06-13 03:21:00,
2013-06-12 23:26:00,73.9,71.4,29.62,ENE,68,0.0,0.0,92,0.00,CLR,,0.00,WeatherDisplay:10.37,2013-06-13 03:26:00,
2013-06-12 23:31:00,74.5,72.0,29.62,West,270,2.2,2.2,92,0.00,CLR,,0.00,WeatherDisplay:10.37,2013-06-13 03:31:00,
2013-06-12 23:36:00,74.1,71.3,29.62,NE,45,2.3,2.4,91,0.00,CLR,,0.00,WeatherDisplay:10.37,2013-06-13 03:36:00,
2013-06-12 23:41:00,74.3,71.5,29.62,WSW,248,3.5,3.5,91,0.00,CLR,,0.00,WeatherDisplay:10.37,2013-06-13 03:41:00,
2013-06-12 23:46:00,74.1,71.6,29.61,SSE,158,3.5,3.5,92,0.00,CLR,,0.00,WeatherDisplay:10.37,2013-06-13 03:46:00,
2013-06-12 23:51:00,74.3,71.8,29.61,ESE,112,3.2,3.2,92,0.00,CLR,,0.00,WeatherDisplay:10.37,2013-06-13 03:51:00,
2013-06-12 23:56:00,74.5,71.7,29.61,SW,225,0.0,0.0,91,0.00,CLR,,0.00,WeatherDisplay:10.37,2013-06-13 03:56:00,